Brownwood, TX

9:08 PM CDT on September 29, 2016 (GMT -0500)
Brownwood Regional

Weather History for KBWD - May, 2013

Change the Weather History Date:

Tuesday, May 7, 2013

  Actual Average (KABI) Record (KABI)
Temperature  
Mean Temperature 64 °F 71 °F  
Max Temperature 86 °F 83 °F 106 °F (2000)
Min Temperature 42 °F 59 °F 37 °F (1906)
Degree Days  
Heating Degree Days 1 1  
Month to date heating degree days 7  
Since 1 July heating degree days 2549  
Cooling Degree Days 0 7  
Month to date cooling degree days 42  
Year to date cooling degree days 175  
Growing Degree Days 14 (Base 50)    
Moisture  
Dew Point 46 °F    
Average Humidity 60    
Maximum Humidity 100    
Minimum Humidity 22    
Precipitation  
Precipitation 0.00 in 0.08 in 1.74 in (1920)
Month to date precipitation 0.60  
Year to date precipitation 6.36  
Sea Level Pressure  
Sea Level Pressure 30.02 in    
Wind  
Wind Speed 4 mph (SSE)    
Max Wind Speed 16 mph    
Max Gust Speed 24 mph    
Visibility 8 miles    
Events Fog    
T = Trace of Precipitation, MM = Missing Value Source: NWS Daily Summary

Daily Weather History Graph

Daily Weather History Graph

Search for Another Location

Airport or City:

Trip Planner

Search our weather history database for the weather conditions in past years. The results will help you decide how hot, cold, wet, or windy it might be!

Date:

Astronomy

May. 07, 2013 Rise Set
Actual Time 6:44 AM CDT 8:20 PM CDT
Civil Twilight 6:18 AM CDT 8:46 PM CDT
Nautical Twilight 5:46 AM CDT 9:18 PM CDT
Astronomical Twilight 5:13 AM CDT 9:51 PM CDT
Moon 5:11 AM CDT (5/7) 6:27 PM CDT (5/7)
Length of Visible Light 14h 28m
Length of Day
13h 35m
Waning Crescent, 5% of the Moon is Illuminated
May 7
Waning Crescent
May 9
New
May 17
First Quarter
May 24
Full
May 31
Last Quarter

Hourly Weather History & Observations

Time (CDT) Temp. Windchill Dew Point Humidity Pressure Visibility Wind Dir Wind Speed Gust Speed Precip Events Conditions
12:15 AM 50.0 °F - 50.0 °F 100% 30.06 in 1.2 mi Calm Calm - N/A   Clear
12:35 AM 46.4 °F - 46.4 °F 100% 30.06 in 0.2 mi Calm Calm - N/A Fog Fog
12:55 AM 48.2 °F - 48.2 °F 100% 30.07 in 0.8 mi Calm Calm - N/A   Scattered Clouds
1:15 AM 46.4 °F - 46.4 °F 100% 30.06 in 0.5 mi Calm Calm - N/A Fog Fog
1:35 AM 46.4 °F - 46.4 °F 100% 30.06 in 0.2 mi Calm Calm - N/A Fog Fog
1:55 AM 46.4 °F - 46.4 °F 100% 30.06 in 0.5 mi Calm Calm - N/A Fog Fog
2:15 AM 46.4 °F - 46.4 °F 100% 30.06 in 0.8 mi Calm Calm - N/A   Mist
2:35 AM 46.4 °F - 46.4 °F 100% 30.06 in 0.2 mi Calm Calm - N/A Fog Fog
2:55 AM 46.4 °F - 46.4 °F 100% 30.06 in 0.2 mi Calm Calm - N/A Fog Fog
3:15 AM 46.4 °F - 46.4 °F 100% 30.06 in 8.0 mi Calm Calm - N/A   Scattered Clouds
3:35 AM 46.4 °F - 46.4 °F 100% 30.07 in 6.0 mi Calm Calm - N/A   Clear
3:55 AM 44.6 °F - 44.6 °F 100% 30.07 in 5.0 mi Calm Calm - N/A   Clear
4:15 AM 44.6 °F - 44.6 °F 100% 30.06 in 8.0 mi Calm Calm - N/A   Clear
4:35 AM 44.6 °F - 44.6 °F 100% 30.05 in 8.0 mi Calm Calm - N/A   Clear
4:55 AM 46.4 °F - 46.4 °F 100% 30.05 in 7.0 mi Calm Calm - N/A   Clear
5:15 AM 44.6 °F - 44.6 °F 100% 30.04 in 3.0 mi Calm Calm - N/A   Partly Cloudy
5:35 AM 44.6 °F 43.1 °F 44.6 °F 100% 30.04 in 10.0 mi SSW 3.5 mph - N/A   Scattered Clouds
5:55 AM 44.6 °F - 44.6 °F 100% 30.05 in 5.0 mi Calm Calm - N/A   Scattered Clouds
6:15 AM 44.6 °F - 44.6 °F 100% 30.05 in 7.0 mi Calm Calm - N/A   Partly Cloudy
6:35 AM 44.6 °F - 44.6 °F 100% 30.06 in 10.0 mi Calm Calm - N/A   Clear
6:55 AM 44.6 °F - 44.6 °F 100% 30.07 in 8.0 mi Calm Calm - N/A   Clear
7:15 AM 42.8 °F - 42.8 °F 100% 30.08 in 5.0 mi Calm Calm - N/A   Clear
7:35 AM 44.6 °F - 44.6 °F 100% 30.08 in 9.0 mi Calm Calm - N/A   Clear
7:55 AM 48.2 °F - 48.2 °F 100% 30.08 in 8.0 mi Calm Calm - N/A   Clear
8:15 AM 50.0 °F - 50.0 °F 100% 30.09 in 10.0 mi Calm Calm - N/A   Clear
8:35 AM 51.8 °F - 51.8 °F 100% 30.10 in 10.0 mi Calm Calm - N/A   Clear
8:55 AM 55.4 °F - 50.0 °F 82% 30.11 in 10.0 mi Calm Calm - N/A   Clear
9:15 AM 59.0 °F - 50.0 °F 72% 30.11 in 10.0 mi Calm Calm - N/A   Clear
9:35 AM 60.8 °F - 51.8 °F 72% 30.11 in 10.0 mi Calm Calm - N/A   Clear
9:55 AM 64.4 °F - 51.8 °F 64% 30.10 in 10.0 mi South 5.8 mph - N/A   Clear
10:15 AM 66.2 °F - 50.0 °F 56% 30.10 in 10.0 mi South 9.2 mph - N/A   Clear
10:35 AM 68.0 °F - 50.0 °F 52% 30.09 in 10.0 mi South 9.2 mph - N/A   Clear
10:55 AM 71.6 °F - 48.2 °F 43% 30.09 in 10.0 mi South 10.4 mph 17.3 mph N/A   Clear
11:15 AM 73.4 °F - 48.2 °F 41% 30.09 in 10.0 mi SE 10.4 mph 17.3 mph N/A   Clear
11:35 AM 73.4 °F - 46.4 °F 38% 30.08 in 10.0 mi SE 13.8 mph - N/A   Clear
11:55 AM 75.2 °F - 42.8 °F 31% 30.07 in 10.0 mi SE 10.4 mph 17.3 mph N/A   Clear
12:15 PM 77.0 °F - 42.8 °F 29% 30.06 in 10.0 mi SE 11.5 mph - N/A   Clear
12:35 PM 77.0 °F - 44.6 °F 32% 30.06 in 10.0 mi South 11.5 mph 17.3 mph N/A   Clear
12:55 PM 78.8 °F - 44.6 °F 30% 30.04 in 10.0 mi SSE 11.5 mph 17.3 mph N/A   Clear
1:15 PM 80.6 °F - 44.6 °F 28% 30.04 in 10.0 mi SE 10.4 mph 20.7 mph N/A   Clear
1:35 PM 80.6 °F - 44.6 °F 28% 30.02 in 10.0 mi South 12.7 mph 16.1 mph N/A   Clear
1:55 PM 80.6 °F - 44.6 °F 28% 30.02 in 10.0 mi South 12.7 mph - N/A   Clear
2:15 PM 82.4 °F - 44.6 °F 26% 30.01 in 10.0 mi SE 12.7 mph 18.4 mph N/A   Clear
2:35 PM 82.4 °F - 44.6 °F 26% 30.00 in 10.0 mi SSW 9.2 mph - N/A   Clear
2:55 PM 84.2 °F - 42.8 °F 23% 29.99 in 10.0 mi ESE 9.2 mph 19.6 mph N/A   Clear
3:15 PM 84.2 °F - 42.8 °F 23% 29.98 in 10.0 mi South 12.7 mph - N/A   Clear
3:35 PM 84.2 °F - 41.0 °F 22% 29.97 in 10.0 mi SSE 13.8 mph 18.4 mph N/A   Clear
3:55 PM 84.2 °F - 41.0 °F 22% 29.96 in 10.0 mi SE 6.9 mph 21.9 mph N/A   Clear
4:15 PM 84.2 °F - 41.0 °F 22% 29.95 in 10.0 mi SSE 12.7 mph - N/A   Clear
4:35 PM 84.2 °F - 41.0 °F 22% 29.95 in 10.0 mi SSE 9.2 mph 19.6 mph N/A   Clear
4:55 PM 84.2 °F - 42.8 °F 23% 29.94 in 10.0 mi South 10.4 mph 18.4 mph N/A   Clear
5:15 PM 86.0 °F - 44.6 °F 23% 29.93 in 10.0 mi SE 12.7 mph 19.6 mph N/A   Clear
5:35 PM 84.2 °F - 44.6 °F 25% 29.93 in 10.0 mi South 16.1 mph 20.7 mph N/A   Clear
5:55 PM 84.2 °F - 44.6 °F 25% 29.93 in 10.0 mi South 12.7 mph - N/A   Clear
6:15 PM 84.2 °F - 44.6 °F 25% 29.92 in 10.0 mi South 16.1 mph 24.2 mph N/A   Clear
6:35 PM 82.4 °F - 44.6 °F 26% 29.92 in 10.0 mi SSE 12.7 mph 20.7 mph N/A   Clear
6:55 PM 82.4 °F - 44.6 °F 26% 29.91 in 10.0 mi SSE 11.5 mph 23.0 mph N/A   Clear
7:15 PM 82.4 °F - 44.6 °F 26% 29.91 in 10.0 mi SSE 13.8 mph 20.7 mph N/A   Clear
7:35 PM 80.6 °F - 44.6 °F 28% 29.91 in 10.0 mi SE 11.5 mph 20.7 mph N/A   Clear
7:55 PM 78.8 °F - 44.6 °F 30% 29.92 in 10.0 mi SSE 8.1 mph - N/A   Clear
8:15 PM 77.0 °F - 44.6 °F 32% 29.92 in 4.0 mi SE 8.1 mph - N/A   Haze
8:35 PM 75.2 °F - 46.4 °F 36% 29.93 in 10.0 mi SSE 5.8 mph - N/A   Clear
8:55 PM 73.4 °F - 46.4 °F 38% 29.93 in 10.0 mi South 6.9 mph - N/A   Clear
9:15 PM 71.6 °F - 46.4 °F 41% 29.94 in 10.0 mi SSE 5.8 mph - N/A   Clear
9:35 PM 71.6 °F - 46.4 °F 41% 29.94 in 10.0 mi SSE 4.6 mph - N/A   Clear
9:55 PM 69.8 °F - 46.4 °F 43% 29.95 in 10.0 mi SSE 3.5 mph - N/A   Clear
10:15 PM 66.2 °F - 48.2 °F 52% 29.96 in 10.0 mi ESE 3.5 mph - N/A   Clear
10:35 PM 64.4 °F - 48.2 °F 56% 29.96 in 10.0 mi ESE 4.6 mph - N/A   Clear
10:55 PM 64.4 °F - 48.2 °F 56% 29.96 in 10.0 mi ESE 5.8 mph - N/A   Clear
11:15 PM 64.4 °F - 48.2 °F 56% 29.97 in 10.0 mi ESE 5.8 mph - N/A   Partly Cloudy
11:35 PM 64.4 °F - 46.4 °F 52% 29.96 in 10.0 mi ESE 6.9 mph - N/A   Clear
11:55 PM 66.2 °F - 46.4 °F 49% 29.96 in 10.0 mi SE 5.8 mph - N/A   Clear